This is the latest recevied weather packets stored in our database for station/object OE6ACM-10. If no packets are shown the sender has not sent any weather packets the latest 10 day(s).
| Time | Temp. | Humidity | Pressure | Rain* | Wind** | Luminosity | Snow |
|---|---|---|---|---|---|---|---|
| 1777891688 | 33.33° C | 34% | 925 hPa | - | - | - | - |
| 1777891388 | 33.89° C | 34% | 925 hPa | - | - | - | - |
| 1777891088 | 33.33° C | 35% | 925.1 hPa | - | - | - | - |
| 1777890788 | 33.33° C | 38% | 925.2 hPa | - | - | - | - |
| 1777890488 | 33.33° C | 35% | 925.3 hPa | - | - | - | - |
| 1777890188 | 33.33° C | 41% | 925.3 hPa | - | - | - | - |
| 1777889888 | 32.78° C | 47% | 925.3 hPa | - | - | - | - |
| 1777889588 | 32.78° C | 44% | 925.4 hPa | - | - | - | - |
| 1777889288 | 32.78° C | 45% | 925.5 hPa | - | - | - | - |
| 1777888988 | 32.78° C | 46% | 925.5 hPa | - | - | - | - |
| 1777888688 | 32.78° C | 47% | 925.6 hPa | - | - | - | - |
| 1777888388 | 32.22° C | 50% | 925.6 hPa | - | - | - | - |
| 1777888088 | 32.22° C | 51% | 925.6 hPa | - | - | - | - |
| 1777887788 | 32.22° C | 50% | 925.6 hPa | - | - | - | - |
| 1777887488 | 31.67° C | 54% | 925.7 hPa | - | - | - | - |
| 1777887188 | 31.67° C | 55% | 925.8 hPa | - | - | - | - |
| 1777886888 | 31.67° C | 63% | 925.8 hPa | - | - | - | - |
| 1777886588 | 31.67° C | 68% | 925.9 hPa | - | - | - | - |
| 1777886288 | 31.67° C | 73% | 925.9 hPa | - | - | - | - |
| 1777885988 | 31.11° C | 78% | 926 hPa | - | - | - | - |
| 1777885688 | 31.11° C | 80% | 926 hPa | - | - | - | - |
| 1777885388 | 30.56° C | 83% | 926.2 hPa | - | - | - | - |
| 1777885088 | 30.56° C | 89% | 926.2 hPa | - | - | - | - |
| 1777884788 | 30° C | 85% | 926.3 hPa | - | - | - | - |
| 1777884488 | 30° C | 86% | 926.3 hPa | - | - | - | - |
* Rain since midnight (hover to see other rain measurements)
** Current wind speed in m/s (hover to see current wind gust speed)